Tracking 25723 objects as of 27-Jun-2022
HD Live streaming from Space Station
objects crossing your sky now

DMSP 5D-2 F13 DEB

Track DMSP 5D-2 F13 DEB now!
10-day predictions


NORAD ID: 42278
Int'l Code: 1995-015GU
Perigee: 820.1 km
Apogee: 885.7 km
Inclination: 98.9 °
Period: 101.8 minutes
Semi major axis: 7223 km
RCS: Unknown
Launch date: March 24, 1995
Source: United States (US)
Launch site: AIR FORCE WESTERN TEST RANGE (AFWTR)

Note: This is SATELLITE DEBRIS
aabbcc
Your satellite tracking list
Your tracking list is empty




NASA's NSSDC Master Catalog

Two Line Element Set (TLE):
1 42278U 95015GU  22177.67867207  .00002313  00000-0  12284-2 0  9993
2 42278  98.8530 157.2344 0045386 166.4627 193.7775 14.13994475360041
Source of the keplerian elements: AFSPC